ORBCOMM FM33 [-]

Last updated on Fri Dec 29 2023 00:02:54 GMT+0000 (Coordinated Universal Time)

1 25983U 99065D 23362.13406626 .00001741 00000+0 62718-3 0 9999 2 25983 45.0304 26.1320 0010363 247.4723 215.5365 14.37129878258812
UTC large
Height (km)
Speed (km/s)
/
Latitude / Longitude
Inclination (degrees)
Orbital Period (minutes)
Azimuth
Elevation
Range (km)
Doppler Factor

Next 0 passes for location: London (51.5072 / 0.1276)

Sorry there are no passes over London.
ORBCOMM FM33 [-]